Stations météo

réclame
Mon MeteoGroup
Saint-Brieuc, France (7120): Température de l'air & dewpoint: 16.08.2019 03:00:00 - 22.08.2019 03:00:00 (CEST)Saint-Brieuc, France (7120): Température de l'air 5cm: 16.08.2019 03:00:00 - 22.08.2019 03:00:00 (CEST)Saint-Brieuc, France (7120): Température de l'air -20cm & Température de l'air -100cm: 16.08.2019 03:00:00 - 22.08.2019 03:00:00 (CEST)Saint-Brieuc, France (7120): Vitesse du vent & gusts: 16.08.2019 03:00:00 - 22.08.2019 03:00:00 (CEST)Saint-Brieuc, France (7120): Direction du vent: 16.08.2019 03:00:00 - 22.08.2019 03:00:00 (CEST)Saint-Brieuc, France (7120): reduced air pressure: 16.08.2019 03:00:00 - 22.08.2019 03:00:00 (CEST)Saint-Brieuc, France (7120): visibility: 16.08.2019 03:00:00 - 22.08.2019 03:00:00 (CEST)Saint-Brieuc, France (7120): Ensoleillement: 16.08.2019 03:00:00 - 22.08.2019 03:00:00 (CEST)Saint-Brieuc, France (7120): Quantités de précipitations: 16.08.2019 03:00:00 - 22.08.2019 03:00:00 (CEST)
Date & Time tt [°C] td [°C] tt 5cm [°C] tt -20cm [°C] tt -100cm [°C] ff [km/h] ff [knt] fx [km/h] fx [knt] dd ppp [hPa] vv [km] sd [min] rr [mm]
22.08.2019 03:00:00 12,9 11,8 8,0 17,1 16,7 3 2 5 3 W 1026,3 20 0 0,0
22.08.2019 02:00:00 13,2 11,8 9,2 17,3 16,7 5 3 11 6 W 1026,6 20 0 0,0
22.08.2019 01:00:00 12,5 11,1 8,5 17,5 16,7 9 5 11 6 WSW 1026,8 20 0 0,0
22.08.2019 00:00:00 13,3 11,5 9,2 17,7 16,7 4 2 6 3 W 1026,8 20 0 0,0
21.08.2019 23:00:00 13,5 11,2 9,1 17,9 16,7 2 1 6 3 W 1026,7 20 0 0,0
21.08.2019 22:00:00 14,2 11,5 9,7 18,0 16,7 5 3 10 6 NNE 1026,5 20 0 0,0
21.08.2019 21:00:00 16,0 11,8 14,6 18,1 16,7 9 5 18 10 NNE 1026,0 20 51 0,0
21.08.2019 20:00:00 17,7 12,4 19,3 18,1 16,7 14 8 22 12 NE 1025,6 20 60 0,0
21.08.2019 19:00:00 18,4 13,5 21,8 18,0 16,8 16 8 22 12 NE 1025,7 20 60 0,0
21.08.2019 18:00:00 19,2 13,6 23,5 17,8 16,7 16 8 23 12 ENE 1025,9 20 60 0,0
21.08.2019 17:00:00 19,3 13,9 24,3 17,6 16,8 16 9 25 14 NE 1026,1 20 60 0,0
21.08.2019 16:00:00 19,5 14,3 24,0 17,3 16,8 17 9 26 14 NE 1026,3 19 58 0,0
21.08.2019 15:00:00 21,2 15,1 22,1 16,9 16,8 17 9 23 12 NE 1026,2 19 35 0,0
21.08.2019 14:00:00 20,0 13,2 22,4 16,5 16,7 8 4 40 22 ENE 1026,4 20 41 0,0
21.08.2019 13:00:00 20,4 10,8 24,0 16,2 16,8 8 5 17 9 S 1027,1 20 60 0,0
21.08.2019 12:00:00 18,9 11,9 20,7 15,9 16,7 8 4 18 10 SE 1027,4 18 60 0,0
21.08.2019 11:00:00 17,0 12,1 17,1 15,7 16,8 6 3 10 5 SE 1027,9 20 40 0,0
21.08.2019 10:00:00 14,7 11,3 13,9 15,7 16,8 4 2 9 5 SE 1028,0 19 24 0,0
21.08.2019 09:00:00 12,6 11,3 10,9 15,7 16,8 5 3 10 6 S 1028,3 19 18 0,0
21.08.2019 08:00:00 11,6 11,0 8,4 15,9 16,8 5 3 8 4 S 1028,1 19 17 0,0
21.08.2019 07:00:00 11,2 10,7 7,4 16,0 16,8 5 3 7 4 SSE 1027,9 20 0 0,2
21.08.2019 06:00:00 10,8 10,6 5,8 16,2 16,8 0 0 4 2 N 1027,9 19 0 0,0
21.08.2019 05:00:00 11,1 10,8 5,6 16,4 16,8 0 0 4 2 N 1028,0 20 0 0,0
21.08.2019 04:00:00 11,4 10,9 6,9 16,5 16,8 0 0 6 3 N 1028,0 20 0 0,0
21.08.2019 03:00:00 11,5 10,6 7,0 16,7 16,8 5 3 6 4 W 1028,3 20 0 0,0
21.08.2019 02:00:00 11,7 10,9 7,2 16,9 16,8 4 2 6 3 W 1028,6 19 0 0,0
21.08.2019 01:00:00 12,0 11,2 7,8 17,1 16,8 4 2 5 3 W 1028,8 19 0 0,0
21.08.2019 00:00:00 12,4 11,1 8,0 17,3 16,8 0 0 7 4 N 1028,8 20 0 0,0
20.08.2019 23:00:00 12,5 10,9 8,7 17,5 16,8 2 1 5 3 NW 1028,7 20 0 0,0
20.08.2019 22:00:00 13,7 11,2 10,2 17,6 16,8 4 2 9 5 NE 1028,4 14 0 0,0
20.08.2019 21:00:00 13,8 11,3 12,1 17,7 16,8 9 5 21 11 NE 1028,0 20 2 0,0
20.08.2019 20:00:00 16,3 11,4 16,5 17,7 16,8 14 8 23 12 NNE 1027,7 20 57 0,0
20.08.2019 19:00:00 17,3 12,0 18,2 17,7 16,8 15 8 24 13 NE 1027,3 20 53 0,0
20.08.2019 18:00:00 17,7 12,2 18,7 17,5 16,8 19 10 29 15 NE 1026,8 20 58 0,0
20.08.2019 17:00:00 16,8 11,9 18,5 17,4 16,8 18 10 25 14 NE 1027,0 20 18 0,0
20.08.2019 16:00:00 17,4 12,5 19,2 17,2 16,8 16 9 26 14 NE 1026,7 20 21 0,0
20.08.2019 15:00:00 17,3 12,6 19,0 17,0 16,8 15 8 24 13 NNE 1026,5 20 12 0,0
20.08.2019 14:00:00 17,8 12,3 20,1 16,7 16,8 15 8 21 12 NE 1026,2 20 30 0,0
20.08.2019 13:00:00 19,1 11,1 21,8 16,3 16,8 10 5 26 14 NNW 1026,0 20 58 0,0
20.08.2019 12:00:00 17,8 11,1 19,1 16,1 16,8 9 5 19 11 N 1025,8 20 51 0,0
20.08.2019 11:00:00 16,8 12,5 19,8 15,9 16,8 8 4 19 10 NNW 1025,8 20 55 0,0
20.08.2019 10:00:00 15,5 12,6 16,9 15,9 16,8 8 4 14 7 WNW 1025,4 20 60 0,0
20.08.2019 09:00:00 14,2 12,9 12,1 15,9 16,8 7 4 12 6 W 1025,0 20 60 0,0
20.08.2019 08:00:00 11,6 11,3 8,8 16,0 16,8 8 5 11 6 WSW 1024,6 19 25 0,0
20.08.2019 07:00:00 11,2 10,7 8,8 16,2 16,8 8 5 13 7 WSW 1024,1 20 0 0,2
20.08.2019 06:00:00 10,9 10,4 8,7 16,3 16,8 10 6 14 8 W 1023,5 20 0 0,0
20.08.2019 05:00:00 11,1 10,6 8,3 16,5 16,8 10 6 16 8 W 1023,2 20 0 0,0
20.08.2019 04:00:00 11,2 10,1 9,4 16,7 16,8 10 6 15 8 W 1022,8 20 0 0,0
20.08.2019 03:00:00 11,2 10,1 9,4 16,9 16,8 11 6 15 8 W 1023,0 20 0 0,0
20.08.2019 02:00:00 11,2 10,1 9,2 17,0 16,8 11 6 14 8 W 1023,3 20 0 0,0
20.08.2019 01:00:00 11,7 10,3 9,8 17,2 16,9 10 5 13 7 W 1023,0 20 0 0,0
20.08.2019 00:00:00 12,4 10,8 10,5 17,4 16,9 10 6 16 8 W 1022,9 20 0 0,0
19.08.2019 23:00:00 12,8 10,7 10,9 17,5 16,8 12 6 18 10 W 1022,6 20 0 0,0
19.08.2019 22:00:00 14,1 10,7 12,4 17,7 16,9 11 6 22 12 WNW 1022,2 20 0 0,0
19.08.2019 21:00:00 15,9 10,9 14,9 17,7 16,8 12 7 22 12 WNW 1021,4 20 49 0,0
19.08.2019 20:00:00 17,7 11,9 17,5 17,7 16,9 13 7 24 13 WNW 1020,6 20 36 0,0
19.08.2019 19:00:00 18,4 11,9 18,6 17,7 16,9 11 6 19 11 W 1020,4 20 5 0,0
19.08.2019 18:00:00 18,5 12,3 17,8 17,5 16,8 15 8 24 13 WNW 1020,3 20 0 0,0
19.08.2019 17:00:00 19,2 11,7 20,3 17,4 16,9 16 8 30 16 NW 1019,9 20 30 0,0
19.08.2019 16:00:00 19,6 12,1 19,6 17,2 16,9 15 8 30 16 W 1019,7 20 22 0,0
19.08.2019 15:00:00 17,7 11,9 19,0 17,0 16,8 18 10 30 16 NW 1020,0 20 2 0,0
19.08.2019 14:00:00 17,4 12,7 14,9 16,8 16,9 10 5 29 16 NW 1019,7 20 1 0,0
19.08.2019 13:00:00 19,3 11,3 15,4 16,6 16,9 16 8 30 16 WSW 1019,2 20 22 0,0
19.08.2019 12:00:00 18,8 11,4 17,1 16,5 16,9 17 9 36 19 WSW 1019,1 20 44 0,0
19.08.2019 11:00:00 17,7 12,2 18,0 16,3 16,9 18 10 29 16 W 1018,7 20 55 0,0
19.08.2019 10:00:00 16,2 13,3 16,6 16,3 16,9 19 10 29 16 W 1018,3 20 60 0,0
19.08.2019 09:00:00 14,5 12,7 13,4 16,3 16,9 13 7 23 12 WSW 1018,1 20 60 0,0
19.08.2019 08:00:00 13,0 12,1 11,6 16,5 16,9 11 6 22 12 WSW 1017,6 20 25 0,0
19.08.2019 07:00:00 12,6 11,8 11,5 16,6 16,9 13 7 21 12 WSW 1017,1 20 0 0,0
19.08.2019 06:00:00 12,8 12,0 11,7 16,7 16,9 12 6 23 12 SW 1016,7 20 0 0,0
19.08.2019 05:00:00 12,8 12,0 11,8 16,9 16,9 13 7 26 14 WSW 1016,3 20 0 0,0
19.08.2019 04:00:00 13,0 12,2 11,9 17,0 16,9 16 8 25 13 WSW 1016,3 19 0 0,0
19.08.2019 03:00:00 12,9 12,0 12,0 17,2 16,9 12 6 24 13 SW 1016,1 20 0 0,0
19.08.2019 02:00:00 13,2 12,1 12,2 17,3 16,9 13 7 24 13 SW 1016,3 20 0 0,0
19.08.2019 01:00:00 13,5 12,1 12,4 17,5 16,9 12 7 23 12 SW 1015,7 20 0 0,0
19.08.2019 00:00:00 13,7 11,7 12,4 17,7 16,9 12 7 21 11 SW 1015,5 20 0 0,0
18.08.2019 23:00:00 13,9 11,9 12,6 17,8 16,9 12 7 24 13 WSW 1015,3 20 0 0,0
18.08.2019 22:00:00 15,4 12,3 14,2 17,9 16,9 14 8 23 12 WSW 1014,6 20 0 0,0
18.08.2019 21:00:00 15,9 12,3 14,9 18,0 16,9 17 9 35 19 W 1013,6 20 20 0,0
18.08.2019 20:00:00 17,9 11,7 17,2 18,0 16,9 19 10 36 19 W 1012,9 20 31 0,0
18.08.2019 19:00:00 18,6 11,7 18,5 18,0 16,9 21 12 34 18 W 1012,4 20 21 0,0
18.08.2019 18:00:00 19,4 11,2 19,5 17,9 16,9 18 10 40 21 W 1012,0 20 30 0,0
18.08.2019 17:00:00 20,3 11,0 20,4 17,8 16,9 27 14 42 23 W 1011,9 20 25 0,0
18.08.2019 16:00:00 19,8 11,8 20,5 17,6 16,9 18 10 42 23 W 1011,5 20 26 0,0
18.08.2019 15:00:00 20,2 12,4 19,6 17,4 16,9 16 9 34 18 WSW 1011,0 20 26 0,0
18.08.2019 14:00:00 19,8 13,9 18,4 17,2 16,9 14 8 30 16 WNW 1010,7 20 16 0,0
18.08.2019 13:00:00 19,0 12,3 18,7 17,0 16,9 18 10 36 20 W 1010,3 20 25 0,0
18.08.2019 12:00:00 18,3 12,3 20,1 16,9 16,9 25 14 39 21 W 1009,9 20 55 0,0
18.08.2019 11:00:00 17,3 12,4 16,7 16,8 16,9 25 13 38 20 W 1009,2 20 43 0,0
18.08.2019 10:00:00 15,8 14,0 15,5 16,8 16,9 19 10 34 19 WNW 1008,5 20 40 0,0
18.08.2019 09:00:00 15,3 14,2 14,1 16,8 16,9 17 9 27 14 W 1007,5 20 29 0,0
18.08.2019 08:00:00 14,6 14,3 13,6 16,9 16,9 11 6 23 12 W 1006,6 20 0 0,0
18.08.2019 07:00:00 13,9 13,9 13,3 17,0 16,9 19 10 30 16 WNW 1006,0 20 0 0,0
18.08.2019 06:00:00 13,8 13,8 13,2 17,1 16,9 16 9 42 23 WNW 1005,0 20 0 0,0
18.08.2019 05:00:00 13,6 13,6 13,3 17,2 16,9 14 7 27 15 SSE 1003,2 20 0 0,2
18.08.2019 04:00:00 13,4 13,4 13,2 17,3 16,9 3 1 10 5 S 1004,5 6 0 2,1
18.08.2019 03:00:00 13,4 13,4 13,2 17,5 16,9 8 5 13 7 SE 1005,1 3,1 0 5,0
18.08.2019 02:00:00 13,4 13,4 13,1 17,6 16,9 2 1 13 7 SSE 1006,4 3,9 0 4,2
18.08.2019 01:00:00 13,6 13,6 13,2 17,8 16,9 6 4 14 8 SSW 1007,9 5 0 4,7
18.08.2019 00:00:00 14,1 13,9 13,7 17,9 16,9 9 5 21 11 S 1007,8 6 0 2,6
17.08.2019 23:00:00 14,8 14,2 14,1 18,0 16,9 10 6 22 12 SSW 1008,4 20 0 0,2
17.08.2019 22:00:00 15,3 14,5 14,6 18,1 16,9 9 5 19 11 SSW 1008,6 14 0 0,4
17.08.2019 21:00:00 15,9 14,6 14,9 18,2 16,9 10 5 23 12 SSW 1008,8 14 0 0,2
17.08.2019 20:00:00 16,8 14,8 15,5 18,2 16,9 8 4 23 12 WSW 1009,2 19 0 0,2
17.08.2019 19:00:00 18,1 14,0 17,1 18,2 16,9 12 7 25 14 WSW 1009,4 20 0 0,0
17.08.2019 18:00:00 19,1 13,7 18,4 18,2 16,9 10 5 22 12 WSW 1009,2 20 0 0,0
17.08.2019 17:00:00 19,8 13,7 20,7 18,1 16,9 16 9 28 15 WSW 1009,5 20 0 0,0
17.08.2019 16:00:00 19,8 13,5 20,5 18,0 16,9 18 10 29 16 W 1009,3 20 0 0,0
17.08.2019 15:00:00 19,5 14,1 20,3 17,8 17,0 18 10 29 16 W 1009,5 20 2 0,0
17.08.2019 14:00:00 19,0 14,0 19,6 17,7 16,9 14 7 26 14 WSW 1009,1 20 6 0,0
17.08.2019 13:00:00 18,2 14,7 18,6 17,6 16,9 15 8 23 13 W 1009,8 20 0 0,0
17.08.2019 12:00:00 17,7 14,4 16,1 17,5 16,9 10 6 17 9 WSW 1008,7 20 0 0,0
17.08.2019 11:00:00 16,8 13,9 16,1 17,5 16,9 14 8 25 14 W 1009,2 20 0 0,0
17.08.2019 10:00:00 16,8 15,0 15,8 17,5 16,9 13 7 21 11 W 1009,0 20 0 0,0
17.08.2019 09:00:00 16,1 15,3 15,1 17,6 16,9 14 8 31 17 W 1008,8 20 0 0,6
17.08.2019 08:00:00 18,0 17,7 17,4 17,5 16,9 10 5 19 11 SW 1008,0 5 0 0,0
17.08.2019 07:00:00 18,1 17,6 17,3 17,6 16,9 10 6 27 15 SW 1007,7 18 0 0,0
17.08.2019 06:00:00 18,0 17,5 17,4 17,6 17,0 13 7 24 13 SSW 1007,6 18 0 0,0
17.08.2019 05:00:00 18,1 17,5 17,4 17,6 16,9 14 7 25 14 SW 1007,9 20 0 0,0
17.08.2019 04:00:00 18,1 17,3 17,7 17,6 17,0 14 8 31 17 SW 1008,2 20 0 0,0
17.08.2019 03:00:00 18,2 17,2 17,4 17,6 16,9 15 8 34 18 SW 1008,3 20 0 0,0
17.08.2019 02:00:00 18,1 17,5 17,3 17,6 16,9 16 9 29 16 SW 1008,9 15 0 0,0
17.08.2019 01:00:00 17,9 17,4 17,1 17,7 16,9 16 9 32 17 SW 1008,9 10 0 0,0
17.08.2019 00:00:00 17,7 17,1 16,9 17,7 16,9 15 8 36 19 SW 1009,2 9 0 0,0
16.08.2019 23:00:00 17,5 16,7 16,5 17,7 16,9 19 10 36 20 SSW 1009,4 17 0 0,0
16.08.2019 22:00:00 17,3 16,3 16,2 17,8 16,9 18 10 36 20 SSW 1009,8 20 0 0,2
16.08.2019 21:00:00 17,1 16,0 16,1 17,8 16,9 17 9 38 20 SSW 1010,1 20 0 0,0
16.08.2019 20:00:00 17,5 15,1 16,4 17,9 16,9 20 11 44 24 SSW 1010,8 20 0 0,0
16.08.2019 19:00:00 18,2 14,9 17,1 17,9 16,9 21 11 53 29 SSW 1011,3 20 0 0,0
16.08.2019 18:00:00 18,9 14,2 18,8 17,9 16,9 23 13 50 27 SW 1011,5 20 0 0,0
16.08.2019 17:00:00 19,6 14,0 20,2 17,9 17,0 27 15 54 29 SW 1012,2 20 0 0,0
16.08.2019 16:00:00 19,6 13,1 20,1 17,7 17,0 22 12 55 30 SSW 1012,7 20 0 0,0
16.08.2019 15:00:00 20,3 13,5 21,2 17,5 16,9 27 14 51 28 SSW 1013,1 20 7 0,0
16.08.2019 14:00:00 19,9 13,4 21,5 17,3 16,9 27 15 49 26 SW 1013,9 20 27 0,0
16.08.2019 13:00:00 19,7 13,4 19,9 17,2 17,0 24 13 46 25 SSW 1014,3 20 14 0,0
16.08.2019 12:00:00 18,8 13,2 19,6 17,0 17,0 21 12 42 23 SW 1015,2 20 5 0,0
16.08.2019 11:00:00 18,0 13,5 18,6 16,9 17,0 17 9 40 22 SW 1015,8 20 24 0,0
16.08.2019 10:00:00 17,0 13,9 15,3 16,9 17,0 16 9 29 16 SSW 1016,4 20 49 0,0
16.08.2019 09:00:00 14,4 13,8 13,8 16,9 17,0 10 6 17 9 S 1017,1 19 15 0,0
16.08.2019 08:00:00 13,4 13,1 12,9 17,0 17,0 11 6 19 11 S 1017,2 14 29 0,0
16.08.2019 07:00:00 13,1 12,9 12,0 17,1 17,0 11 6 18 10 S 1018,5 13 0 0,0
16.08.2019 06:00:00 12,8 12,6 12,0 17,3 17,0 10 6 19 11 S 1018,5 13 0 0,0
16.08.2019 05:00:00 13,0 12,7 11,8 17,4 17,0 12 6 20 11 SW 1019,2 16 0 0,0
16.08.2019 04:00:00 13,1 12,6 11,9 17,6 17,0 6 3 11 6 S 1019,2 20 0 0,0
16.08.2019 03:00:00 13,8 12,7 12,3 17,7 17,0 6 3 11 6 SSW 1019,9 20 0 0,0

tt = Température de l'air
td = dewpoint
tt 5cm = Température de l'air 5cm
tt -20cm = Température de l'air -20cm
tt -100cm = Température de l'air -100cm
ff = Vitesse du vent
fx = gusts
dd = Direction du vent
ppp = reduced air pressure
vv = visibility
sd = Ensoleillement
rr = Quantités de précipitations

stations d'obs. à proximité